Shungnak AP, Shungnak, AK, AK

9:10 PM AKST on November 17, 2019 (GMT -0900)
Shungnak AP, Shungnak, AK

Weather History for PAGH - September, 2019

Change the Weather History Date:

Thursday, September 19, 2019

  Actual Average (WUND) Record (WUND)
Temperature  
Mean Temperature 34 °F -  
Max Temperature 45 °F - - (-1)
Min Temperature 24 °F - - (-1)
Degree Days  
Heating Degree Days 30    
Moisture  
Dew Point 28 °F    
Average Humidity 79    
Maximum Humidity 96    
Minimum Humidity 53    
Precipitation  
Precipitation 0.00 in - - ()
Sea Level Pressure  
Sea Level Pressure 29.65 in    
Wind  
Wind Speed 3 mph (WNW)    
Max Wind Speed 7 mph    
Max Gust Speed -    
Visibility 9 miles    
Events      
Averages and records for this station are not official NWS values.
T = Trace of Precipitation, MM = Missing Value Source: NWS Daily Summary

Daily Weather History Graph

Daily Weather History Graph

Search for Another Location

Airport or City:

Astronomy

Sep. 19, 2019 Rise Set
Actual Time 8:00 AM AKDT 8:42 PM AKDT
Civil Twilight 7:06 AM AKDT 9:35 PM AKDT
Nautical Twilight 5:58 AM AKDT 10:43 PM AKDT
Astronomical Twilight 4:30 AM AKDT 12:08 AM AKDT
Moon 9:31 PM AKDT (9/19) 3:37 PM AKDT (9/19)
Length of Visible Light 14h 29m
Length of Day
12h 41m
Waning Gibbous, 73% of the Moon is Illuminated
Sep 19
Waning Gibbous
Sep 21
Last Quarter
Sep 28
New
Oct 5
First Quarter
Oct 13
Full

Hourly Weather History & Observations

Time (AKDT) Temp. Windchill Dew Point Humidity Pressure Visibility Wind Dir Wind Speed Gust Speed Precip Events Conditions
12:56 AM 32.0 °F 27.5 °F 28.0 °F 85% 29.54 in 10.0 mi WSW 4.6 mph - N/A   Clear
1:56 AM 33.1 °F 30.0 °F 27.0 °F 78% 29.56 in 10.0 mi West 3.5 mph - N/A   Clear
2:56 AM 32.0 °F 27.5 °F 27.0 °F 82% 29.58 in 10.0 mi SW 4.6 mph - N/A   Clear
3:56 AM 30.0 °F 25.2 °F 27.0 °F 88% 29.60 in 10.0 mi WSW 4.6 mph - N/A   Clear
4:56 AM 27.0 °F - 24.1 °F 89% 29.61 in 10.0 mi Calm Calm - N/A   Clear
5:56 AM 26.1 °F 18.4 °F 25.0 °F 96% 29.62 in 10.0 mi West 6.9 mph - N/A   Clear
6:31 AM 24.8 °F 20.5 °F 21.2 °F 86% 29.61 in 1.8 mi NW 3.5 mph - N/A   Partly Cloudy
6:44 AM 24.8 °F 20.5 °F 21.2 °F 86% 29.61 in 3.0 mi NW 3.5 mph - N/A   Partly Cloudy
6:56 AM 24.1 °F - 23.0 °F 96% 29.64 in 10.0 mi Calm Calm - N/A   Partly Cloudy
7:56 AM 26.1 °F - 25.0 °F 96% 29.65 in 10.0 mi Calm Calm - N/A   Clear
8:56 AM 27.0 °F - 25.0 °F 92% 29.66 in 10.0 mi Calm Calm - N/A   Clear
9:56 AM 30.0 °F 26.5 °F 28.9 °F 96% 29.67 in 10.0 mi East 3.5 mph - N/A   Clear
10:56 AM 37.0 °F - 33.1 °F 86% 29.68 in 10.0 mi Calm Calm - N/A   Clear
11:56 AM 37.9 °F 35.5 °F 33.1 °F 83% 29.70 in 10.0 mi West 3.5 mph - N/A   Clear
12:56 PM 37.9 °F 35.5 °F 30.9 °F 76% 29.71 in 10.0 mi WNW 3.5 mph - N/A   Clear
1:56 PM 39.9 °F 36.7 °F 30.0 °F 68% 29.72 in 10.0 mi West 4.6 mph - N/A   Clear
3:56 PM 43.0 °F 38.8 °F 30.0 °F 60% 29.71 in 10.0 mi NW 6.9 mph - N/A   Clear
4:56 PM 45.0 °F 41.8 °F 28.9 °F 53% 29.70 in 10.0 mi WNW 5.8 mph - N/A   Clear
5:56 PM 45.0 °F - 30.0 °F 56% 29.69 in 10.0 mi Calm Calm - N/A   Clear
6:56 PM 45.0 °F 42.6 °F 30.0 °F 56% 29.69 in 10.0 mi WNW 4.6 mph - N/A   Clear
7:56 PM 42.1 °F 40.2 °F 30.0 °F 62% 29.68 in 10.0 mi NNW 3.5 mph - N/A   Clear
8:56 PM 39.9 °F - 30.0 °F 68% 29.68 in 10.0 mi Calm Calm - N/A   Clear
9:56 PM 37.9 °F - 28.9 °F 70% 29.67 in 10.0 mi Calm Calm - N/A   Clear
10:56 PM 33.1 °F - 30.9 °F 92% 29.67 in 10.0 mi Calm Calm - N/A   Clear
11:56 PM 33.1 °F 28.7 °F 28.0 °F 82% 29.67 in 10.0 mi East 4.6 mph - N/A   Clear